Home > Weather > Lindlar > Past weeks

Flag for Germany Past Weather in Lindlar, North Rhine-Westphalia, Germany — Yesterday and Last 2 Weeks

Now
59 °F

Fog.


Feels Like: 59 °F
Forecast: 59 / 70 °F
Wind: 2 mph from North

Location: Koeln / Bonn

Current Time: May 28, 2016 at 6:08:57 AM

Latest Report: May 28, 2016 at 5:20 AM


Visibility: 1 mi

Pressure: 29.95 "Hg

Humidity: 100%

Dew Point: 59 °F

Location of LindlarLocation

Past Weather in Lindlar — Graph

°F

Lindlar Temperature Yesterday

Maximum temperature yesterday: 73 °F (at 12:20 PM)
Minimum temperature yesterday: 57 °F (at 2:20 AM)
Average temperature yesterday: 65 °F

High & Low Weather Summary for the Past Weeks

 TemperatureHumidityPressure
High75 °F (May 13, 4:50 PM)100% (May 23, 3:50 PM)30.12 "Hg (May 23, 3:50 PM)
Low43 °F (May 15, 4:20 AM)29% (May 13, 6:20 PM)29.53 "Hg (May 13, 5:20 AM)
Average57 °F70%29.94 "Hg
* Reported May 13 5:20 AM — May 28 5:20 AM, Lindlar, Weather by CustomWeather, © 2016

Note: Actual official high and low records may vary slightly from our data, if they occured in-between our weather recording intervals... More about our weather records

Advertising

Lindlar Weather History for the Previous 24 Hours

Scroll right to see more
 ConditionsComfort  
Time TempWeatherWind HumidityBarometerVisibility
5:20 AM
Sat, May 28
59 °FFog.2 mph100%29.95 "Hg1 mi
4:20 AM59 °FCool.3 mph94%29.95 "Hg1 mi
3:50 AM59 °FCool.2 mph94%29.95 "Hg1 mi
3:20 AM57 °FCool.3 mph100%29.95 "Hg1 mi
2:50 AM57 °FFog.1 mph100%29.95 "HgN/A
2:20 AM59 °FFog.2 mph94%29.95 "HgN/A
1:50 AM59 °FFog.2 mph94%29.95 "HgN/A
1:20 AM59 °FFog.5 mph100%29.95 "HgN/A
12:50 AM59 °FFog.3 mph100%29.95 "HgN/A
12:20 AM61 °FFog.2 mph94%29.95 "HgN/A
11:50 PM
Fri, May 27
61 °FLight rain. Partly cloudy.1 mph100%29.98 "HgN/A
11:20 PM61 °FLight rain. Partly cloudy.2 mph94%29.98 "HgN/A
10:50 PM61 °FLight rain. Partly cloudy.2 mph94%29.98 "HgN/A
10:20 PM63 °FLight rain. Broken clouds.2 mph94%29.98 "HgN/A
9:50 PM63 °FLight rain. Broken clouds.2 mph88%29.98 "HgN/A
9:20 PM64 °FBroken clouds.5 mph83%29.98 "HgN/A
8:50 PM64 °FThunderstorms. Broken clouds.8 mph78%29.95 "HgN/A
8:20 PM68 °FThunderstorms. Broken clouds.5 mph73%29.95 "HgN/A
7:50 PM70 °FThundershowers. Broken clouds.2 mph69%29.95 "HgN/A
7:20 PM70 °FThundershowers. Broken clouds.2 mph64%29.95 "HgN/A
6:50 PM72 °FScattered showers. Broken clouds.2 mph57%29.95 "HgN/A
6:20 PM72 °FPartly sunny.5 mph57%29.95 "HgN/A
5:50 PM72 °FPartly sunny.6 mph57%29.95 "HgN/A
5:20 PM72 °FPartly sunny.1 mph57%29.95 "HgN/A
4:50 PM72 °FScattered showers. Scattered clouds.5 mph57%29.95 "HgN/A
4:20 PM72 °FScattered clouds.7 mph57%29.95 "HgN/A
3:50 PM73 °FScattered showers. Broken clouds.3 mph53%29.95 "HgN/A
3:20 PM72 °FThundershowers. Broken clouds.5 mph57%29.95 "HgN/A
2:50 PM72 °FSprinkles. Broken clouds.5 mph57%29.95 "HgN/A
2:20 PM72 °FScattered showers. Scattered clouds.1 mph53%29.95 "HgN/A
1:50 PM73 °FScattered clouds.3 mph50%29.95 "HgN/A
1:20 PM73 °FScattered clouds.6 mph50%29.95 "HgN/A
12:50 PM73 °FScattered clouds.3 mph50%29.98 "HgN/A
12:20 PM73 °FPassing clouds.6 mph53%29.98 "HgN/A
11:50 AM70 °FPassing clouds.7 mph60%29.98 "HgN/A
11:20 AM70 °FPassing clouds.6 mph64%29.98 "HgN/A
10:50 AM68 °FPassing clouds.8 mph69%29.98 "HgN/A
10:20 AM66 °FScattered clouds.6 mph73%29.98 "HgN/A
9:50 AM64 °FScattered clouds.8 mph73%29.98 "HgN/A
9:20 AM63 °FScattered clouds.8 mph77%29.98 "HgN/A
8:50 AM61 °FLight rain. Scattered clouds.6 mph83%29.98 "HgN/A
8:20 AM61 °FLight rain. Partly sunny.5 mph83%29.98 "HgN/A
7:50 AM57 °FLight rain. Partly sunny.6 mph94%29.98 "HgN/A
7:20 AM57 °FLight rain. Broken clouds.5 mph88%29.98 "HgN/A
6:50 AM57 °FLight rain. Broken clouds.6 mph88%29.98 "HgN/A
6:20 AM57 °FPartly cloudy.6 mph88%29.98 "HgN/A
Weather by CustomWeather, © 2016

See weather overviewHow to use our weather pages